Lid_Strength_Index
-1 -3 -3 -2 -1 -1 -1 -1 -1 -1 -1 -1 -1 -1 -1 -2 -1 -1 -1 -1 -1 -2 -2 -2 -2 -2 -2 -2 -2 -2 -2 -2 -2
-1 -1 -2 -1 -1 -1 -1 -1 -1 -1 -1 -1 -1 -1 -2 -1 -1 -1 -1 -1 -1 -2 -2 -2 -2 -2 -2 -2 -2 -2 -2 -2 -2
-1 -1 -1 -1 -1 -1 -1 -1 -1 -1 -1 -1 -1 -1 -1 -1 -1 -1 -1 -1 -2 -2 -1 -1 -2 -2 -2 -2 -2 -2 -2 -2 -2
-1 -1 -1 -1 -1 -1 -1 -1 -1 -1 -1 -1 -1 -1 -1 -1 -1 -1 -1 -1 -1 -1 -1 -1 -1 -2 -2 -2 -2 -2 -2 -2 -2
-1 -1 -1 -1 -1 -1 -1 -1 -1 -1 -1 -1 -1 -1 -0 -0 -1 -1 -1 -1 -1 -1 -1 -1 -1 -2 -1 -1 -2 -2 -2 -2 -2
-1 -1 -1 -1 -1 -1 -1 -1 -0 0 1 1 1 1 1 2 1 0 -1 -1 -1 -1 -2 -2 -2 -1 -1 -1 -1 -1 -2 -2 -2
-1 -1 -1 -1 -1 -1 0 2 3 3 4 3 3 4 4 3 3 2 -0 -1 -2 -2 -2 -2 -2 -2 -2 -2 -2 -2 -2 -1 -2
-1 -1 -1 -1 0 3 4 5 5 5 6 6 6 5 6 6 4 3 0 -1 -1 -1 -1 -2 -1 -1 -2 -2 -2 -1 -1 -1 -1
-1 -1 0 2 5 6 6 6 7 7 8 8 7 8 7 6 4 4 2 1 -1 -2 -1 -1 -1 -1 -2 -2 -2 -2 -1 -1 -1
1 5 5 6 6 7 7 7 8 9 9 9 8 9 7 7 6 5 3 1 1 1 0 1 0 -0 0 0 -0 0 0 0 -0
5 6 6 6 7 8 8 9 9 10 10 10 9 9 8 8 8 6 6 4 3 2 2 2 2 2 1 1 1 1 1 1 0
6 7 8 8 8 9 9 10 9 10 11 11 10 9 8 8 8 7 7 6 6 4 4 4 4 3 2 2 2 2 2 1 0
8 8 9 9 9 10 10 10 10 11 11 11 10 9 8 9 8 8 9 8 8 8 6 6 5 5 4 3 3 3 3 3 3
8 9 9 10 10 10 10 11 11 11 11 10 9 9 8 9 9 9 9 9 9 9 8 8 8 7 6 5 4 4 4 4 4
9 10 10 10 11 10 11 12 11 12 11 11 11 9 7 9 9 10 9 10 10 10 10 10 10 9 7 6 6 5 5 5 4
9 10 11 11 12 12 12 12 13 12 11 11 11 10 9 9 9 10 9 11 10 10 10 10 11 10 8 8 7 6 5 5 4
10 11 11 12 12 13 13 13 12 12 11 13 12 13 11 10 11 10 10 11 10 11 11 11 11 11 10 10 8 7 6 5 4
11 11 12 12 12 13 13 13 13 13 12 12 13 14 15 14 11 11 10 11 11 11 11 12 11 11 11 10 10 8 7 6 4
12 12 12 12 13 13 13 13 13 12 13 12 13 13 13 15 15 12 12 12 13 12 12 12 12 11 11 10 9 8 7 5 4
12 12 12 13 13 13 13 13 13 13 13 13 14 13 13 13 15 16 14 13 12 12 13 13 12 11 10 10 9 8 7 5 5